When you browse on this site, cookies collect data to enhance your experience and personalize the content and advertising you see.
Visit our Privacy Policy to learn more. By continuing to use the site, you agree to this use of cookies and data.
  • In Deutschland
  • Länderverzeichnis
  • Für 7 Tage
  • Wassertemperatur
  • Satellitenkarten
  • Wetterkarte
  • Widgets
  • user-avatar
    Anmelden

    Stündliche Wetter Krzywica

    Heute, 21 Juli, Sonntag

    Zeit Temperatur Niederschläge Wind Luftdruck Luftfeuchtigkeit
    00:00 +20°C° 0 mm 2 m/S 753 mmHg 79%
    01:00 +19°C° 0 mm 2 m/S 753 mmHg 79%
    02:00 +19°C° 0 mm 2 m/S 753 mmHg 81%
    03:00 +19°C° 0 mm 2 m/S 753 mmHg 83%
    04:00 +18°C° 0 mm 2 m/S 752 mmHg 85%
    05:00 +20°C° 0 mm 2 m/S 752 mmHg 80%
    06:00 +21°C° 0 mm 2 m/S 752 mmHg 75%
    07:00 +24°C° 0 mm 2 m/S 752 mmHg 70%
    08:00 +26°C° 0 mm 3 m/S 752 mmHg 65%
    09:00 +27°C° 0 mm 3 m/S 752 mmHg 61%
    10:00 +28°C° 0 mm 4 m/S 753 mmHg 56%
    11:00 +29°C° 0.3 mm 4 m/S 752 mmHg 55%
    12:00 +30°C° 0.3 mm 4 m/S 752 mmHg 54%
    13:00 +30°C° 0.3 mm 4 m/S 752 mmHg 53%
    14:00 +30°C° 0.4 mm 5 m/S 752 mmHg 54%
    15:00 +30°C° 0.4 mm 5 m/S 752 mmHg 54%
    16:00 +29°C° 0.4 mm 5 m/S 752 mmHg 54%
    17:00 +28°C° 0.1 mm 5 m/S 752 mmHg 59%
    18:00 +26°C° 0.1 mm 4 m/S 752 mmHg 64%
    19:00 +25°C° 0.1 mm 4 m/S 753 mmHg 69%
    20:00 +23°C° 0 mm 4 m/S 753 mmHg 73%
    21:00 +22°C° 0 mm 3 m/S 753 mmHg 76%
    22:00 +21°C° 0 mm 3 m/S 754 mmHg 79%
    23:00 +20°C° 0 mm 3 m/S 754 mmHg 84%

    Morgen, 22 Juli, Montag

    Zeit Temperatur Niederschläge Wind Luftdruck Luftfeuchtigkeit
    00:00 +19°C° 0 mm 3 m/S 754 mmHg 88%
    01:00 +18°C° 0 mm 2 m/S 755 mmHg 92%
    02:00 +18°C° 0 mm 2 m/S 755 mmHg 92%
    03:00 +18°C° 0 mm 3 m/S 755 mmHg 92%
    04:00 +17°C° 0 mm 3 m/S 755 mmHg 91%
    05:00 +18°C° 0 mm 3 m/S 755 mmHg 86%
    06:00 +19°C° 0 mm 4 m/S 756 mmHg 81%
    07:00 +20°C° 0 mm 5 m/S 756 mmHg 75%
    08:00 +21°C° 0 mm 5 m/S 756 mmHg 70%
    09:00 +22°C° 0 mm 5 m/S 756 mmHg 65%
    10:00 +23°C° 0 mm 6 m/S 756 mmHg 61%
    11:00 +24°C° 0 mm 6 m/S 756 mmHg 57%
    12:00 +24°C° 0 mm 6 m/S 756 mmHg 54%
    13:00 +26°C° 0 mm 6 m/S 756 mmHg 51%
    14:00 +26°C° 0 mm 6 m/S 756 mmHg 51%
    15:00 +26°C° 0 mm 6 m/S 756 mmHg 51%
    16:00 +26°C° 0 mm 6 m/S 756 mmHg 51%
    17:00 +23°C° 0 mm 5 m/S 756 mmHg 56%
    18:00 +22°C° 0 mm 4 m/S 756 mmHg 61%
    19:00 +21°C° 0 mm 3 m/S 756 mmHg 65%
    20:00 +20°C° 0 mm 3 m/S 756 mmHg 69%
    21:00 +19°C° 0 mm 3 m/S 756 mmHg 72%
    22:00 +17°C° 0 mm 2 m/S 757 mmHg 75%
    23:00 +17°C° 0 mm 2 m/S 757 mmHg 77%

    übermorgen, 23 Juli, Dienstag

    Zeit Temperatur Niederschläge Wind Luftdruck Luftfeuchtigkeit
    00:00 +16°C° 0 mm 2 m/S 757 mmHg 79%
    01:00 +16°C° 0 mm 2 m/S 756 mmHg 82%
    02:00 +15°C° 0 mm 2 m/S 757 mmHg 83%
    03:00 +15°C° 0 mm 2 m/S 757 mmHg 85%
    04:00 +14°C° 0 mm 2 m/S 757 mmHg 87%
    05:00 +16°C° 0 mm 2 m/S 756 mmHg 82%
    06:00 +17°C° 0 mm 3 m/S 756 mmHg 77%
    07:00 +18°C° 0 mm 3 m/S 756 mmHg 71%
    08:00 +20°C° 0 mm 3 m/S 756 mmHg 65%
    09:00 +21°C° 0 mm 4 m/S 756 mmHg 59%
    10:00 +23°C° 0 mm 4 m/S 756 mmHg 53%
    11:00 +23°C° 0 mm 5 m/S 756 mmHg 53%
    12:00 +25°C° 0 mm 5 m/S 756 mmHg 53%
    13:00 +24°C° 0 mm 6 m/S 756 mmHg 53%
    14:00 +23°C° 0 mm 5 m/S 756 mmHg 59%
    15:00 +22°C° 0 mm 5 m/S 756 mmHg 64%
    16:00 +21°C° 0 mm 5 m/S 756 mmHg 69%
    17:00 +20°C° 0 mm 4 m/S 755 mmHg 73%
    18:00 +20°C° 0 mm 3 m/S 755 mmHg 76%
    19:00 +19°C° 0 mm 2 m/S 755 mmHg 80%
    20:00 +18°C° 0 mm 2 m/S 755 mmHg 84%
    21:00 +18°C° 0 mm 2 m/S 755 mmHg 87%
    22:00 +18°C° 0 mm 1 m/S 756 mmHg 91%
    23:00 +18°C° 0 mm 1 m/S 756 mmHg 91%

    24 Juli, Mittwoch

    Zeit Temperatur Niederschläge Wind Luftdruck Luftfeuchtigkeit
    00:00 +18°C° 0 mm 1 m/S 756 mmHg 91%
    01:00 +18°C° 0 mm 1 m/S 756 mmHg 90%
    02:00 +18°C° 0 mm 1 m/S 755 mmHg 90%
    03:00 +19°C° 0 mm 1 m/S 755 mmHg 90%
    04:00 +17°C° 0 mm 0 m/S 755 mmHg 90%
    05:00 +20°C° 0 mm 1 m/S 755 mmHg 86%
    06:00 +21°C° 0 mm 1 m/S 755 mmHg 83%
    07:00 +21°C° 0 mm 1 m/S 756 mmHg 80%
    08:00 +22°C° 0 mm 1 m/S 756 mmHg 76%
    09:00 +23°C° 0 mm 1 m/S 756 mmHg 73%
    10:00 +24°C° 0 mm 1 m/S 756 mmHg 70%
    11:00 +25°C° 0 mm 2 m/S 756 mmHg 67%
    12:00 +25°C° 0 mm 2 m/S 756 mmHg 65%
    13:00 +26°C° 0 mm 2 m/S 756 mmHg 62%
    14:00 +26°C° 0 mm 2 m/S 755 mmHg 60%
    15:00 +27°C° 0 mm 2 m/S 755 mmHg 59%
    16:00 +27°C° 0 mm 2 m/S 755 mmHg 57%
    17:00 +26°C° 0 mm 2 m/S 755 mmHg 62%
    18:00 +25°C° 0 mm 1 m/S 755 mmHg 67%
    19:00 +24°C° 0 mm 1 m/S 755 mmHg 72%
    20:00 +23°C° 0 mm 1 m/S 755 mmHg 75%
    21:00 +22°C° 0 mm 1 m/S 756 mmHg 79%
    22:00 +19°C° 0 mm 0 m/S 756 mmHg 82%
    23:00 +19°C° 0 mm 0 m/S 756 mmHg 84%

    25 Juli, Donnerstag

    Zeit Temperatur Niederschläge Wind Luftdruck Luftfeuchtigkeit
    00:00 +21°C° 0 mm 1 m/S 756 mmHg 85%
    01:00 +20°C° 0 mm 1 m/S 756 mmHg 87%
    02:00 +20°C° 0 mm 1 m/S 756 mmHg 89%
    03:00 +20°C° 0 mm 1 m/S 756 mmHg 90%
    04:00 +19°C° 0 mm 1 m/S 756 mmHg 92%
    05:00 +21°C° 0 mm 1 m/S 756 mmHg 88%
    06:00 +22°C° 0 mm 1 m/S 757 mmHg 84%
    07:00 +24°C° 0 mm 1 m/S 757 mmHg 79%
    08:00 +25°C° 0 mm 2 m/S 757 mmHg 72%
    09:00 +27°C° 0 mm 2 m/S 757 mmHg 66%
    10:00 +28°C° 0 mm 2 m/S 757 mmHg 59%
    11:00 +28°C° 0 mm 2 m/S 757 mmHg 57%
    12:00 +29°C° 0 mm 2 m/S 757 mmHg 56%
    13:00 +29°C° 0 mm 2 m/S 756 mmHg 54%
    14:00 +29°C° 0 mm 2 m/S 756 mmHg 53%
    15:00 +30°C° 0 mm 3 m/S 756 mmHg 53%
    16:00 +30°C° 0 mm 3 m/S 756 mmHg 52%
    17:00 +28°C° 0 mm 3 m/S 756 mmHg 58%
    18:00 +27°C° 0 mm 3 m/S 756 mmHg 64%
    19:00 +26°C° 0 mm 2 m/S 756 mmHg 70%
    20:00 +25°C° 0 mm 2 m/S 756 mmHg 74%
    21:00 +23°C° 0 mm 2 m/S 756 mmHg 78%
    22:00 +21°C° 0 mm 2 m/S 756 mmHg 81%
    23:00 +21°C° 0 mm 2 m/S 756 mmHg 84%

    26 Juli, Freitag

    Zeit Temperatur Niederschläge Wind Luftdruck Luftfeuchtigkeit
    00:00 +20°C° 0 mm 2 m/S 756 mmHg 86%
    01:00 +20°C° 0 mm 2 m/S 757 mmHg 89%
    02:00 +20°C° 0 mm 2 m/S 756 mmHg 89%
    03:00 +19°C° 0 mm 2 m/S 756 mmHg 90%
    04:00 +19°C° 0 mm 2 m/S 756 mmHg 91%
    05:00 +20°C° 0 mm 2 m/S 756 mmHg 85%
    06:00 +23°C° 0 mm 2 m/S 756 mmHg 79%
    07:00 +25°C° 0 mm 2 m/S 756 mmHg 73%
    08:00 +26°C° 0 mm 3 m/S 756 mmHg 66%
    09:00 +27°C° 0 mm 3 m/S 756 mmHg 60%
    10:00 +29°C° 0 mm 3 m/S 756 mmHg 54%
    11:00 +29°C° 0 mm 3 m/S 755 mmHg 51%
    12:00 +30°C° 0 mm 3 m/S 755 mmHg 48%
    13:00 +31°C° 0 mm 3 m/S 755 mmHg 46%
    14:00 +31°C° 0 mm 3 m/S 754 mmHg 46%
    15:00 +30°C° 0 mm 3 m/S 754 mmHg 46%
    16:00 +30°C° 0 mm 3 m/S 754 mmHg 47%
    17:00 +29°C° 0 mm 3 m/S 754 mmHg 52%
    18:00 +27°C° 0 mm 3 m/S 754 mmHg 58%
    19:00 +26°C° 0 mm 3 m/S 753 mmHg 64%
    20:00 +25°C° 0 mm 3 m/S 754 mmHg 66%
    21:00 +24°C° 0 mm 3 m/S 754 mmHg 68%
    22:00 +22°C° 0 mm 3 m/S 754 mmHg 70%
    23:00 +21°C° 0 mm 3 m/S 754 mmHg 73%
    Mehr zeigen